Location: Archemont
(49.1579°N, 1.7598°E)
Time: 10:35:44
(UTC+00:00)

MINOTAUR 4 R/B - Pass Details

Date: 03 February 2023
Orbit: 447 x 452 km, 98.0° (Epoch: 28 March)

Event Time Altitude Azimuth Distance (km) Brightness Sun altitude
Exits shadow 18:51:48 61° 29° (NNE) 518 3.9 -19.7°
Maximum altitude 18:52:19 82° 102° (ESE) 459 3.7 -19.7°
Drops below altitude 10° 18:55:41 10° 192° (SSW) 1,572 6.8 -20.3°
Sets 18:57:42 0° 193° (SSW) 2,439 7.8 -20.6°
